When you browse on this site, cookies collect data to enhance your experience and personalize the content and advertising you see.
Visit our Privacy Policy to learn more. By continuing to use the site, you agree to this use of cookies and data.
  • In Österreich
  • Länderverzeichnis
  • Für 7 Tage
  • Wassertemperatur
  • Satellitenkarten
  • Wetterkarte
  • News
  • Widgets
  • user-avatar
    Anmelden

    Stündliche Wetter Algier

    Heute, 18 Januar, Freitag

    Zeit Temperatur Niederschläge Wind Luftdruck Luftfeuchtigkeit
    00:00 +11°C° 0 mm 4 m/S 749 mmHg 67%
    01:00 +11°C° 0 mm 4 m/S 749 mmHg 67%
    02:00 +11°C° 0 mm 4 m/S 749 mmHg 67%
    03:00 +10°C° 0 mm 4 m/S 749 mmHg 67%
    04:00 +10°C° 0 mm 4 m/S 749 mmHg 67%
    05:00 +10°C° 0 mm 4 m/S 749 mmHg 67%
    06:00 +10°C° 0 mm 4 m/S 749 mmHg 68%
    07:00 +11°C° 0.1 mm 4 m/S 750 mmHg 66%
    08:00 +11°C° 0.1 mm 4 m/S 750 mmHg 65%
    09:00 +12°C° 0.1 mm 5 m/S 750 mmHg 64%
    10:00 +13°C° 0 mm 5 m/S 750 mmHg 62%
    11:00 +14°C° 0 mm 5 m/S 750 mmHg 60%
    12:00 +14°C° 0 mm 5 m/S 750 mmHg 58%
    13:00 +14°C° 0.1 mm 6 m/S 750 mmHg 59%
    14:00 +14°C° 0.1 mm 6 m/S 749 mmHg 61%
    15:00 +14°C° 0.1 mm 6 m/S 749 mmHg 62%
    16:00 +13°C° 0.3 mm 5 m/S 749 mmHg 66%
    17:00 +12°C° 0.3 mm 5 m/S 749 mmHg 70%
    18:00 +12°C° 0.3 mm 4 m/S 750 mmHg 74%
    19:00 +11°C° 0.2 mm 4 m/S 750 mmHg 75%
    20:00 +11°C° 0.2 mm 3 m/S 750 mmHg 76%
    21:00 +11°C° 0.2 mm 3 m/S 750 mmHg 76%
    22:00 +12°C° 0.1 mm 2 m/S 750 mmHg 76%
    23:00 +10°C° 0.1 mm 2 m/S 750 mmHg 76%

    Morgen, 19 Januar, Samstag

    Zeit Temperatur Niederschläge Wind Luftdruck Luftfeuchtigkeit
    00:00 +10°C° 0.1 mm 2 m/S 750 mmHg 76%
    01:00 +10°C° 0.2 mm 2 m/S 750 mmHg 75%
    02:00 +10°C° 0.2 mm 3 m/S 750 mmHg 74%
    03:00 +10°C° 0.2 mm 3 m/S 750 mmHg 72%
    04:00 +10°C° 0.2 mm 3 m/S 750 mmHg 73%
    05:00 +10°C° 0.2 mm 3 m/S 750 mmHg 73%
    06:00 +10°C° 0.2 mm 3 m/S 750 mmHg 73%
    07:00 +10°C° 0.1 mm 4 m/S 750 mmHg 70%
    08:00 +11°C° 0.1 mm 4 m/S 750 mmHg 68%
    09:00 +12°C° 0.1 mm 4 m/S 750 mmHg 65%
    10:00 +12°C° 0 mm 5 m/S 750 mmHg 60%
    11:00 +13°C° 0 mm 5 m/S 750 mmHg 55%
    12:00 +14°C° 0 mm 5 m/S 750 mmHg 50%
    13:00 +14°C° 0 mm 5 m/S 749 mmHg 51%
    14:00 +14°C° 0 mm 5 m/S 749 mmHg 51%
    15:00 +14°C° 0 mm 5 m/S 749 mmHg 51%
    16:00 +13°C° 0 mm 4 m/S 749 mmHg 54%
    17:00 +12°C° 0 mm 3 m/S 749 mmHg 57%
    18:00 +13°C° 0 mm 2 m/S 749 mmHg 60%
    19:00 +12°C° 0 mm 2 m/S 749 mmHg 61%
    20:00 +11°C° 0 mm 3 m/S 749 mmHg 61%
    21:00 +11°C° 0 mm 3 m/S 749 mmHg 62%
    22:00 +11°C° 0 mm 4 m/S 749 mmHg 63%
    23:00 +11°C° 0 mm 4 m/S 748 mmHg 64%

    übermorgen, 20 Januar, Sonntag

    Zeit Temperatur Niederschläge Wind Luftdruck Luftfeuchtigkeit
    00:00 +11°C° 0 mm 4 m/S 748 mmHg 65%
    01:00 +11°C° 0 mm 4 m/S 747 mmHg 66%
    02:00 +11°C° 0 mm 4 m/S 747 mmHg 67%
    03:00 +11°C° 0 mm 4 m/S 747 mmHg 68%
    04:00 +10°C° 0 mm 5 m/S 746 mmHg 69%
    05:00 +10°C° 0 mm 5 m/S 746 mmHg 70%
    06:00 +10°C° 0 mm 5 m/S 745 mmHg 70%
    07:00 +10°C° 0.2 mm 5 m/S 745 mmHg 71%
    08:00 +12°C° 0.2 mm 5 m/S 745 mmHg 72%
    09:00 +11°C° 0.2 mm 6 m/S 745 mmHg 73%
    10:00 +13°C° 0.1 mm 6 m/S 745 mmHg 70%
    11:00 +14°C° 0.1 mm 6 m/S 745 mmHg 68%
    12:00 +15°C° 0.1 mm 6 m/S 745 mmHg 65%
    13:00 +15°C° 0.2 mm 6 m/S 744 mmHg 66%
    14:00 +15°C° 0.2 mm 6 m/S 744 mmHg 68%
    15:00 +15°C° 0.2 mm 6 m/S 744 mmHg 69%
    16:00 +14°C° 0.7 mm 5 m/S 744 mmHg 75%
    17:00 +13°C° 0.7 mm 5 m/S 745 mmHg 80%
    18:00 +12°C° 0.7 mm 5 m/S 745 mmHg 86%
    19:00 +12°C° 0.6 mm 5 m/S 745 mmHg 85%
    20:00 +12°C° 0.6 mm 5 m/S 746 mmHg 83%
    21:00 +12°C° 0.6 mm 5 m/S 746 mmHg 82%
    22:00 +12°C° 0.7 mm 5 m/S 747 mmHg 83%
    23:00 +11°C° 0.7 mm 4 m/S 747 mmHg 84%

    21 Januar, Montag

    Zeit Temperatur Niederschläge Wind Luftdruck Luftfeuchtigkeit
    00:00 +11°C° 0.7 mm 4 m/S 747 mmHg 85%
    01:00 +11°C° 1 mm 4 m/S 747 mmHg 83%
    02:00 +11°C° 1 mm 4 m/S 748 mmHg 80%
    03:00 +10°C° 1 mm 5 m/S 748 mmHg 78%
    04:00 +11°C° 0.6 mm 4 m/S 748 mmHg 77%
    05:00 +11°C° 0.6 mm 4 m/S 749 mmHg 76%
    06:00 +11°C° 0.6 mm 3 m/S 749 mmHg 75%
    07:00 +11°C° 0.8 mm 3 m/S 749 mmHg 74%
    08:00 +11°C° 0.8 mm 3 m/S 750 mmHg 72%
    09:00 +12°C° 0.8 mm 2 m/S 750 mmHg 70%
    10:00 +12°C° 0.6 mm 2 m/S 750 mmHg 70%
    11:00 +11°C° 0.6 mm 3 m/S 750 mmHg 70%
    12:00 +11°C° 0.6 mm 3 m/S 750 mmHg 70%
    13:00 +11°C° 0.7 mm 3 m/S 750 mmHg 71%
    14:00 +11°C° 0.7 mm 3 m/S 750 mmHg 72%
    15:00 +11°C° 0.7 mm 3 m/S 750 mmHg 73%
    16:00 +10°C° 0.5 mm 2 m/S 750 mmHg 75%
    17:00 +11°C° 0.5 mm 1 m/S 750 mmHg 77%
    18:00 +11°C° 0.5 mm 1 m/S 751 mmHg 79%
    19:00 +10°C° 0.4 mm 1 m/S 751 mmHg 80%
    20:00 +10°C° 0.4 mm 1 m/S 751 mmHg 81%
    21:00 +10°C° 0.4 mm 1 m/S 752 mmHg 81%
    22:00 +10°C° 0.1 mm 1 m/S 752 mmHg 81%
    23:00 +9°C° 0.1 mm 2 m/S 751 mmHg 80%

    22 Januar, Dienstag

    Zeit Temperatur Niederschläge Wind Luftdruck Luftfeuchtigkeit
    00:00 +9°C° 0.1 mm 3 m/S 751 mmHg 79%
    01:00 +8°C° 0.1 mm 4 m/S 751 mmHg 78%
    02:00 +8°C° 0.1 mm 4 m/S 751 mmHg 77%
    03:00 +7°C° 0.1 mm 5 m/S 751 mmHg 76%
    04:00 +7°C° 0.2 mm 5 m/S 750 mmHg 76%
    05:00 +7°C° 0.2 mm 5 m/S 750 mmHg 76%
    06:00 +7°C° 0.2 mm 5 m/S 750 mmHg 76%
    07:00 +8°C° 0.2 mm 5 m/S 750 mmHg 74%
    08:00 +8°C° 0.2 mm 5 m/S 751 mmHg 71%
    09:00 +9°C° 0.2 mm 5 m/S 751 mmHg 69%
    10:00 +9°C° 0.3 mm 6 m/S 750 mmHg 65%
    11:00 +10°C° 0.3 mm 6 m/S 750 mmHg 60%
    12:00 +11°C° 0.3 mm 7 m/S 750 mmHg 56%
    13:00 +11°C° 0.1 mm 7 m/S 749 mmHg 56%
    14:00 +11°C° 0.1 mm 8 m/S 748 mmHg 55%
    15:00 +11°C° 0.1 mm 8 m/S 747 mmHg 54%
    16:00 +10°C° 0 mm 8 m/S 747 mmHg 57%
    17:00 +9°C° 0 mm 8 m/S 747 mmHg 59%
    18:00 +9°C° 0 mm 8 m/S 747 mmHg 61%
    19:00 +9°C° 0.4 mm 8 m/S 746 mmHg 61%
    20:00 +9°C° 0.4 mm 8 m/S 746 mmHg 62%
    21:00 +8°C° 0.4 mm 9 m/S 746 mmHg 63%
    22:00 +8°C° 1.2 mm 9 m/S 745 mmHg 69%
    23:00 +7°C° 1.2 mm 9 m/S 744 mmHg 75%

    23 Januar, Mittwoch

    Zeit Temperatur Niederschläge Wind Luftdruck Luftfeuchtigkeit
    00:00 +7°C° 1.2 mm 9 m/S 744 mmHg 80%
    01:00 +8°C° 1.7 mm 9 m/S 743 mmHg 77%
    02:00 +8°C° 1.7 mm 9 m/S 743 mmHg 74%
    03:00 +8°C° 1.7 mm 10 m/S 742 mmHg 71%
    04:00 +8°C° 0.3 mm 10 m/S 742 mmHg 69%
    05:00 +8°C° 0.3 mm 10 m/S 742 mmHg 66%
    06:00 +8°C° 0.3 mm 10 m/S 742 mmHg 64%
    07:00 +9°C° 0 mm 10 m/S 742 mmHg 63%
    08:00 +9°C° 0 mm 11 m/S 742 mmHg 61%
    09:00 +10°C° 0 mm 12 m/S 742 mmHg 59%
    10:00 +12°C° 0.1 mm 13 m/S 741 mmHg 58%
    11:00 +12°C° 0.1 mm 14 m/S 740 mmHg 57%
    12:00 +13°C° 0.1 mm 16 m/S 740 mmHg 56%
    13:00 +13°C° 0 mm 15 m/S 739 mmHg 56%
    14:00 +13°C° 0 mm 15 m/S 739 mmHg 57%
    15:00 +13°C° 0 mm 15 m/S 739 mmHg 57%
    16:00 +12°C° 0 mm 14 m/S 738 mmHg 58%
    17:00 +12°C° 0 mm 14 m/S 738 mmHg 58%
    18:00 +12°C° 0 mm 14 m/S 738 mmHg 59%
    19:00 +12°C° 0 mm 14 m/S 738 mmHg 61%
    20:00 +12°C° 0 mm 14 m/S 738 mmHg 63%
    21:00 +12°C° 0 mm 14 m/S 738 mmHg 65%
    22:00 +12°C° 0.3 mm 14 m/S 737 mmHg 66%
    23:00 +12°C° 0.3 mm 14 m/S 737 mmHg 68%
    Mehr zeigen